Location: Cantaing
(50.1487°N, 3.1675°E)
Time: 15:51:41
(UTC+00:00)

Meteor 2-19 Rocket - Pass Details

Date: 26 April 2026
Orbit: 936 x 958 km, 82.5° (Epoch: 13 May)

Event Time Altitude Azimuth Distance (km) Brightness Sun altitude
Rises 19:19:48 0° 342° (NNW) 3,642 8.3 -3.9°
Reaches altitude 10° 19:22:39 10° 331° (NNW) 2,688 7.8 -4.3°
Maximum altitude 19:27:41 27° 276° (W) 1,725 6.8 -5.0°
Drops below altitude 10° 19:32:40 10° 220° (SW) 2,660 6.9 -5.7°
Sets 19:35:29 0° 209° (SSW) 3,596 7.5 -6.1°
